EDT,Max TemperatureF,Mean TemperatureF,Min TemperatureF,Max Dew PointF,MeanDew PointF,Min DewpointF,Max Humidity, Mean Humidity, Min Humidity, Max Sea Level PressureIn, Mean Sea Level PressureIn, Min Sea Level PressureIn, Max VisibilityMiles, Mean VisibilityMiles, Min VisibilityMiles, Max Wind SpeedMPH, Mean Wind SpeedMPH, Max Gust SpeedMPH,PrecipitationIn, CloudCover, Events, WindDirDegrees
2012-8-1,83,72,60,66,62,57,93,74,55,30.03,29.93,29.87,10,8,1,12,3,15,0.01,2,,219
2012-8-2,85,75,64,66,62,57,93,68,43,30.00,29.91,29.87,10,8,2,10,3,13,0.00,1,,229
2012-8-3,86,75,64,66,63,61,87,66,44,30.15,29.97,29.90,10,9,6,17,5,24,0.03,2,Rain,176
2012-8-4,83,76,69,69,66,64,84,71,58,30.13,30.08,30.01,10,10,8,14,8,20,T,4,,156
2012-8-5,80,74,68,69,66,61,90,76,62,30.27,30.14,30.08,10,10,7,16,7,22,0.02,5,Rain,215
2012-8-6,77,72,66,67,66,64,93,81,69,30.24,30.15,30.04,10,8,1,7,3,9,0.63,6,Rain,226
2012-8-7,81,72,63,67,65,61,100,77,54,30.13,30.03,29.97,10,10,6,8,2,12,0.00,3,,344
2012-8-8,84,73,62,65,62,56,100,72,43,30.11,30.01,29.96,10,6,1,10,2,13,0.00,1,,353
2012-8-9,84,74,63,65,62,60,93,70,47,29.97,29.91,29.82,10,9,4,23,4,29,0.08,1,Rain,196
2012-8-10,75,69,62,66,63,60,93,86,78,29.89,29.83,29.75,10,9,0,16,7,25,0.37,6,Fog-Rain,218
2012-8-11,74,65,55,61,56,52,100,75,49,30.02,29.94,29.86,10,8,0,13,5,18,0.00,4,Fog,240
2012-8-12,75,64,53,57,53,51,93,70,46,30.07,30.04,30.00,10,10,8,10,3,24,0.00,1,,348
2012-8-13,80,68,55,60,56,53,93,71,48,30.07,30.01,29.94,10,10,10,14,4,18,0.00,2,,197
2012-8-14,80,72,63,63,61,57,87,71,54,30.01,29.92,29.85,10,10,8,14,6,21,0.01,4,Rain,230
2012-8-15,73,66,58,64,61,57,97,85,73,30.10,29.99,29.88,10,6,0,12,3,16,0.11,7,Fog-Rain,252
2012-8-16,79,69,59,61,58,56,100,74,47,30.16,30.06,29.95,10,5,0,9,4,13,0.00,4,Fog,216
2012-8-17,73,67,60,63,60,55,93,81,68,30.02,29.96,29.87,10,9,3,12,5,15,0.03,5,Rain,253
2012-8-18,76,68,59,61,58,54,100,75,49,30.04,29.97,29.87,10,5,0,12,3,16,0.00,5,Fog,279
2012-8-19,73,66,58,63,59,55,93,77,61,29.98,29.90,29.85,10,10,10,14,6,18,0.64,6,Rain,123
2012-8-20,73,64,55,59,56,53,100,77,53,30.02,29.94,29.87,10,10,10,12,3,14,0.04,4,,263
2012-8-21,77,64,51,56,51,48,96,67,38,30.12,30.06,30.02,10,10,10,12,2,14,0.00,0,,283
2012-8-22,79,66,53,58,53,50,89,63,37,30.16,30.12,30.09,10,10,10,10,2,20,0.00,1,,17
2012-8-23,82,70,58,60,56,51,93,66,39,30.22,30.14,30.09,10,10,10,14,4,,0.00,3,,158
2012-8-24,81,71,60,63,59,55,93,68,42,30.20,30.14,30.09,10,10,2,47,3,59,0.79,3,Rain,149
2012-8-25,79,68,57,59,56,52,93,70,46,30.19,30.16,30.13,10,10,10,12,4,15,0.00,3,,127
2012-8-26,82,68,54,60,55,51,93,65,36,30.27,30.15,30.10,10,10,10,10,3,14,0.00,1,,225
2012-8-27,84,74,63,62,60,58,87,65,43,30.16,30.07,29.99,10,10,10,10,6,14,0.00,0,,180
2012-8-28,80,71,61,65,62,54,87,68,48,30.14,30.03,29.95,10,10,10,10,4,15,0.01,6,Rain,344
2012-8-29,80,68,56,60,56,54,87,65,42,30.05,30.01,29.98,10,10,10,13,3,17,0.00,0,,360
2012-8-30,84,70,56,60,55,53,93,65,37,30.12,30.08,30.02,10,10,10,16,4,18,0.00,0,,189
2012-8-31,86,75,63,68,64,58,93,72,51,30.32,30.18,30.11,10,10,10,15,5,21,0.00,3,,248